RH
24 24 24 24 26 25 25 26 27 29 29 30 35 38 40 42 42 42 48 52 52 50 45 43 45 44 41 41 43 41 38 34 30 26 24 22 22 23
24 23 23 24 26 26 26 26 28 31 31 33 38 43 47 47 47 46 50 55 57 55 52 47 45 44 42 41 42 45 41 36 34 30 28 27 27 27
23 22 22 23 25 26 27 27 30 33 35 38 42 47 51 53 53 51 49 53 58 59 58 52 48 46 45 45 47 48 44 40 36 34 32 31 29 25
34 30 28 27 27 27 29 31 33 34 38 40 45 49 54 57 57 57 54 55 58 65 62 57 52 50 48 51 52 50 44 41 37 35 33 28 23 16
54 49 45 41 38 35 35 36 36 38 41 42 48 54 58 60 61 63 62 59 58 64 64 60 56 56 56 57 54 49 43 39 36 31 26 18 12 8
53 56 58 57 55 50 47 45 43 45 46 49 54 58 63 66 66 64 64 60 60 62 62 58 56 56 60 57 50 44 39 34 29 22 15 10 5 4
74 69 60 62 69 67 62 60 57 56 56 59 62 66 69 72 73 71 65 59 59 56 54 57 54 58 56 51 44 39 34 28 18 12 9 6 5 3
65 79 80 74 68 67 74 72 72 70 69 69 71 72 74 78 80 80 68 60 56 60 48 50 54 52 48 44 37 34 26 18 12 9 7 6 4 3
37 51 68 84 79 76 74 82 76 85 83 80 79 80 82 85 86 83 73 68 62 62 51 45 51 47 43 36 32 28 18 15 11 8 6 3 3 3
23 30 39 51 66 89 89 86 94 96 98 94 90 91 92 91 87 82 80 73 66 66 60 47 50 42 32 29 28 20 16 12 8 5 4 4 4 4
22 25 27 39 49 69 77 86 99 100 100 99 98 96 93 93 86 87 84 80 69 68 64 52 47 33 26 24 19 17 14 9 7 5 4 4 5 14
28 30 33 34 47 46 72 100 99 100 100 99 100 98 95 94 90 94 88 83 76 67 67 53 48 39 23 20 15 17 12 8 6 5 4 4 14 42
28 31 33 40 52 59 73 90 100 100 99 99 99 97 97 98 97 95 91 85 80 78 72 60 48 42 35 22 15 15 10 8 6 5 4 5 22 57
33 46 48 53 61 57 77 99 100 100 100 100 99 99 98 97 95 93 92 90 89 80 71 60 50 41 32 24 18 13 7 6 5 4 3 4 36 60
44 55 58 64 73 62 81 100 100 100 100 99 99 100 98 96 95 95 95 91 92 80 68 57 44 32 21 15 12 6 5 6 4 4 3 11 48 67
82 74 69 81 79 83 97 100 100 100 100 99 98 97 96 96 96 95 95 92 87 74 60 46 32 22 16 7 4 4 5 5 4 4 6 24 61 81
99 92 89 94 94 100 100 100 99 100 99 98 97 96 96 97 96 96 94 90 81 67 53 34 20 14 8 5 4 5 5 5 5 12 34 44 61 79
100 99 100 100 100 100 100 100 100 99 98 97 96 96 96 96 97 96 94 86 73 58 41 28 21 17 11 5 5 5 7 6 7 21 60 66 64 67
100 100 100 100 99 98 98 98 97 98 96 95 95 96 96 96 96 96 91 78 60 42 23 16 13 10 10 8 5 8 8 13 11 33 71 83 73 62
100 98 97 97 98 98 97 97 96 96 96 96 96 97 97 97 97 93 78 62 45 31 17 7 5 4 4 5 6 3 19 14 37 58 74 79 70 66
99 98 98 96 96 96 97 97 97 96 96 96 96 96 97 97 94 85 61 44 31 22 12 6 4 3 2 3 2 2 5 26 72 83 88 80 70 52
100 99 95 94 96 97 96 96 96 96 95 96 96 96 96 95 94 80 46 28 17 13 9 4 3 3 2 2 2 2 2 5 41 77 97 96 94 84
96 97 97 96 96 96 97 97 96 96 95 94 95 96 96 95 94 58 25 15 13 8 6 4 3 3 2 2 2 4 8 20 49 55 82 97 99 98
Wind_Speed
32 30 30 29 27 27 28 26 26 26 26 26 28 28 29 30 31 31 32 33 35 36 38 38 38 39 41 43 44 46 48 50 51 51 52 54 57 60
33 32 32 32 30 29 29 29 29 28 28 28 28 29 29 31 32 32 34 34 36 38 39 39 39 41 44 45 47 48 50 53 54 54 56 59 62 65
34 34 34 34 33 32 31 32 31 31 30 30 30 30 31 32 34 34 36 37 38 39 40 40 40 42 45 46 48 50 53 55 56 57 59 62 65 67
36 36 37 35 35 34 34 34 33 35 33 32 31 32 32 34 36 36 38 40 40 40 41 41 41 42 45 47 50 51 52 54 57 59 62 65 67 67
40 39 38 39 37 36 37 36 37 37 35 35 34 34 34 35 37 39 40 39 40 40 40 41 42 42 46 49 50 51 52 54 57 61 63 64 65 67
45 42 43 42 40 39 41 39 42 38 37 38 36 36 36 37 39 39 38 39 37 40 41 41 42 43 48 48 48 49 50 54 57 60 62 63 65 67
48 46 45 44 43 44 45 43 44 39 40 39 39 38 39 40 40 41 41 39 36 39 42 37 44 45 46 45 47 46 51 53 54 58 62 64 66 71
48 49 48 47 47 48 50 46 47 43 41 42 40 41 41 41 41 41 42 42 40 36 45 39 45 45 47 46 47 47 51 54 55 59 63 67 70 75
48 48 50 51 50 53 53 51 49 48 43 45 42 44 42 42 42 41 42 43 42 41 50 50 46 47 48 47 48 47 50 55 57 62 68 71 71 75
45 47 49 52 55 56 55 54 53 49 47 46 45 45 43 43 44 44 43 43 42 41 50 55 49 49 49 48 50 49 52 57 61 65 69 72 72 75
48 49 49 51 52 55 57 57 57 51 51 49 47 46 44 44 45 45 45 46 46 44 50 54 50 51 50 50 52 53 56 60 64 68 72 72 72 72
47 49 51 51 52 55 56 57 55 53 52 50 49 47 46 45 46 45 45 45 48 49 51 56 52 54 54 52 55 55 57 62 65 69 71 69 68 68
50 51 51 52 51 51 53 54 52 53 53 51 50 51 49 46 44 45 45 46 47 49 52 56 56 56 58 59 57 56 59 63 66 68 71 69 65 58
49 46 47 47 47 49 50 50 53 52 51 52 53 52 49 44 43 44 44 46 46 50 50 51 54 56 58 60 61 57 59 63 66 68 71 68 62 46
49 46 44 45 47 51 48 51 50 49 51 52 50 49 46 44 43 43 43 45 43 45 47 49 50 52 53 56 59 58 62 62 64 67 66 65 56 46
40 40 40 41 45 45 46 46 45 49 49 50 48 46 43 41 41 41 41 44 45 39 40 44 46 49 52 52 54 55 59 62 63 64 66 65 48 40
35 36 36 37 38 38 37 39 42 44 46 47 45 42 40 39 39 39 41 43 45 45 40 38 41 45 47 50 51 52 57 60 64 64 65 62 42 41
33 34 33 32 31 32 34 37 41 44 45 42 39 38 37 36 37 38 39 42 42 40 40 42 45 48 48 48 49 52 56 59 62 61 61 57 45 37
31 31 32 31 32 34 36 38 39 38 38 36 35 36 36 36 36 36 37 38 36 37 36 39 44 48 52 54 51 45 56 56 60 60 58 47 45 44
31 33 33 32 32 33 34 34 34 33 33 34 35 35 34 34 34 34 34 34 34 35 34 35 39 43 47 52 54 50 44 52 54 58 55 45 40 43
32 34 34 33 33 33 33 32 32 32 32 33 33 33 33 32 30 30 30 32 34 36 36 35 38 39 43 47 49 49 48 46 50 50 46 44 48 46
35 34 34 34 32 31 31 31 31 31 32 32 32 32 31 29 26 25 28 30 30 34 35 36 37 38 41 45 48 50 53 51 44 38 27 31 41 44
35 33 32 31 30 29 29 29 29 29 29 30 31 30 27 25 22 23 26 28 32 33 34 35 35 36 39 43 46 48 49 49 48 46 23 22 29 30
Wind_Direction
236 237 241 244 247 251 256 261 266 271 275 281 286 290 294 297 300 302 302 301 300 297 296 297 300 303 306 308 311 313 313 311 310 308 308 307 307 306
238 240 243 246 249 252 257 261 265 271 276 279 284 288 292 295 298 300 301 302 301 300 297 297 299 302 304 307 309 312 312 310 310 310 309 308 307 307
238 242 245 248 249 252 256 260 265 268 272 276 281 286 290 294 297 300 301 303 303 302 301 299 300 301 303 306 309 310 310 310 309 309 308 306 307 308
239 241 245 248 251 254 256 260 264 267 271 275 279 283 289 294 297 300 302 304 304 302 301 299 299 301 302 305 307 309 310 310 309 307 307 308 308 308
238 240 244 247 249 252 256 258 262 265 271 275 277 282 287 292 295 300 304 305 305 301 299 298 299 301 301 305 308 310 310 309 309 308 308 308 309 311
242 240 242 245 249 252 255 258 260 264 270 273 277 281 286 289 294 298 300 303 302 299 296 297 298 299 302 303 308 311 310 309 310 310 310 310 312 313
243 244 246 248 249 252 255 257 261 264 268 272 275 280 285 289 294 298 301 301 301 300 296 298 298 298 301 307 310 313 311 311 312 311 311 313 317 317
243 246 247 249 250 253 255 258 261 264 265 270 274 279 282 287 292 299 301 302 303 305 298 301 301 302 304 311 313 316 315 314 314 313 314 320 322 322
245 245 247 248 251 253 256 257 261 261 266 267 272 275 280 286 292 297 299 304 309 312 305 305 308 307 308 313 315 322 319 316 316 320 325 324 324 321
253 252 250 250 251 250 253 256 257 260 262 266 270 276 281 286 291 295 295 300 304 312 309 308 311 310 310 315 318 322 323 322 324 326 325 324 324 322
251 247 249 249 250 251 253 254 256 258 261 265 269 273 279 283 288 290 294 299 302 309 309 310 313 310 312 316 318 327 328 325 327 327 324 326 325 323
255 252 250 249 248 251 251 252 256 258 261 264 267 271 275 277 283 287 292 297 301 308 310 311 314 315 313 316 320 327 327 327 328 326 324 325 326 324
259 255 252 253 252 253 254 255 257 259 260 264 267 270 272 273 282 286 291 296 303 309 309 311 314 317 316 316 318 327 328 326 325 324 325 326 329 324
260 256 255 254 254 254 254 254 256 258 261 262 265 267 270 275 280 284 288 295 302 305 307 310 313 316 317 319 320 327 327 325 326 326 325 326 329 319
259 259 257 254 252 253 252 253 255 258 260 263 266 267 268 273 279 282 285 291 298 302 307 310 313 313 317 320 323 328 324 328 326 325 324 325 333 326
261 262 262 258 257 258 253 256 256 256 259 263 263 264 269 273 277 280 285 289 294 298 304 307 309 312 317 321 324 326 324 324 326 327 328 331 337 328
257 259 257 254 256 259 259 258 257 258 260 258 259 264 270 273 277 281 285 290 295 300 304 307 309 314 318 321 324 326 325 329 330 332 330 330 337 336
252 253 254 256 257 256 254 254 254 254 254 258 262 265 268 273 275 279 285 290 295 301 308 311 314 315 318 322 328 332 331 331 332 331 329 329 332 340
247 249 250 250 249 249 250 251 253 255 256 258 261 264 268 271 274 279 284 290 297 305 313 317 318 321 322 325 331 339 333 333 331 332 328 328 329 334
252 252 251 249 248 249 250 251 253 254 255 258 262 266 269 271 275 280 287 295 300 305 314 321 322 324 325 327 331 336 337 334 334 332 327 328 330 331
251 253 252 249 248 246 246 247 249 251 255 260 263 265 267 270 277 286 295 301 307 311 317 323 324 327 327 325 326 332 338 340 338 333 328 332 337 339
239 242 249 251 248 245 244 246 250 253 255 258 261 264 267 272 280 290 298 303 307 312 318 322 325 327 326 326 330 335 336 336 338 340 335 336 340 337
241 241 240 239 240 241 244 247 251 256 259 263 266 267 269 275 286 296 302 307 309 314 317 322 326 328 327 330 333 337 336 337 339 342 348 337 341 341